JAL2438 RJFM-RJOO

Flight info

Callsign JAL2438
Flight time N/A
Altitude 33000
Route MADOG Y753 IZUMI
Aircraft E190/M-SDE3GILORVW/S

Departure

Time 2026-04-29 15:11
Airport Miyazaki Airport (RJFM)

Arrival

Time N/A
Airport Osaka Itami International Airport (RJOO)
Time Latitude Longitude Altitude Speed Heading
2026-04-29 14:55 31.87363 131.44202 24 ft 0 kts 206°
2026-04-29 15:03 31.87365 131.44203 25 ft 3 kts 206°
2026-04-29 15:03 31.87383 131.44212 24 ft 4 kts 192°
2026-04-29 15:03 31.87409 131.44214 24 ft 4 kts 181°
2026-04-29 15:04 31.87435 131.44211 27 ft 4 kts 182°
2026-04-29 15:04 31.87456 131.44214 26 ft 4 kts 204°
2026-04-29 15:04 31.87476 131.44227 24 ft 1 kts 213°
2026-04-29 15:06 31.87475 131.44227 24 ft 1 kts 213°
2026-04-29 15:06 31.87473 131.44223 24 ft 1 kts 227°
2026-04-29 15:06 31.87472 131.44212 24 ft 2 kts 263°
2026-04-29 15:07 31.87472 131.44173 25 ft 9 kts 271°
2026-04-29 15:07 31.87480 131.44076 27 ft 13 kts 278°
2026-04-29 15:07 31.87482 131.43959 23 ft 15 kts 267°
2026-04-29 15:07 31.87474 131.43825 23 ft 17 kts 265°
2026-04-29 15:08 31.87463 131.43676 23 ft 19 kts 264°
2026-04-29 15:08 31.87470 131.43552 25 ft 15 kts 301°
2026-04-29 15:08 31.87517 131.43523 23 ft 0 kts
2026-04-29 15:08 31.87526 131.43524 23 ft 2 kts
2026-04-29 15:09 31.87551 131.43531 23 ft 5 kts 16°
2026-04-29 15:09 31.87595 131.43551 23 ft 9 kts 31°
2026-04-29 15:09 31.87629 131.43621 22 ft 14 kts 78°
2026-04-29 15:09 31.87650 131.43831 24 ft 39 kts 86°
2026-04-29 15:10 31.87688 131.44372 25 ft 97 kts 85°
2026-04-29 15:10 31.87747 131.45394 43 ft 151 kts 84°
2026-04-29 15:10 31.87782 131.46672 600 ft 154 kts 87°
2026-04-29 15:10 31.87514 131.48009 523 ft 183 kts 121°
2026-04-29 15:11 31.86610 131.49135 630 ft 197 kts 137°
2026-04-29 15:11 31.85430 131.50188 785 ft 221 kts 140°
2026-04-29 15:11 31.84254 131.51227 1256 ft 210 kts 141°
2026-04-29 15:11 31.83073 131.52367 992 ft 231 kts 135°
2026-04-29 15:12 31.81865 131.53653 1021 ft 232 kts 135°
2026-04-29 15:12 31.80661 131.54945 1061 ft 237 kts 135°
2026-04-29 15:12 31.79494 131.56208 984 ft 218 kts 135°
2026-04-29 15:12 31.78332 131.57464 997 ft 242 kts 135°
2026-04-29 15:13 31.77049 131.58853 1029 ft 255 kts 135°
2026-04-29 15:13 31.75751 131.60246 1028 ft 252 kts 134°
2026-04-29 15:13 31.74764 131.61857 1065 ft 237 kts 107°
2026-04-29 15:13 31.74672 131.63769 1335 ft 232 kts 81°
2026-04-29 15:14 31.74975 131.65476 1537 ft 202 kts 77°
2026-04-29 15:14 31.75307 131.67054 1756 ft 197 kts 77°
2026-04-29 15:14 31.75655 131.68613 1990 ft 199 kts 75°
2026-04-29 15:14 31.76104 131.70170 2232 ft 203 kts 71°
2026-04-29 15:15 31.76629 131.71804 2522 ft 227 kts 70°
2026-04-29 15:15 31.77222 131.73631 2865 ft 247 kts 70°
2026-04-29 15:15 31.77856 131.75557 3290 ft 256 kts 70°
2026-04-29 15:15 31.78493 131.77508 3689 ft 258 kts 69°
2026-04-29 15:16 31.79463 131.79309 4078 ft 265 kts 48°
2026-04-29 15:16 31.80749 131.80846 4463 ft 267 kts 46°
2026-04-29 15:16 31.82060 131.82426 4845 ft 269 kts 48°
2026-04-29 15:16 31.83311 131.84052 5219 ft 272 kts 51°
2026-04-29 15:17 31.84526 131.85788 5598 ft 275 kts 53°
2026-04-29 15:17 31.85683 131.87569 5970 ft 277 kts 54°
2026-04-29 15:17 31.86831 131.89409 6345 ft 280 kts 55°
2026-04-29 15:17 31.87980 131.91286 6725 ft 282 kts 55°
2026-04-29 15:18 31.89106 131.93158 7094 ft 285 kts 57°
2026-04-29 15:18 31.90162 131.95156 7470 ft 287 kts 60°
2026-04-29 15:18 31.91199 131.97192 7844 ft 290 kts 60°
2026-04-29 15:18 31.92227 131.99223 8204 ft 293 kts 60°
2026-04-29 15:19 31.93278 132.01303 8589 ft 295 kts 60°
2026-04-29 15:19 31.94322 132.03372 8957 ft 297 kts 60°
2026-04-29 15:19 31.95386 132.05480 9335 ft 299 kts 60°
2026-04-29 15:19 31.96455 132.07606 9703 ft 302 kts 60°
2026-04-29 15:20 31.97520 132.09719 10076 ft 304 kts 59°
2026-04-29 15:20 31.98609 132.11881 10438 ft 306 kts 59°
2026-04-29 15:20 31.99687 132.14024 10804 ft 308 kts 59°
2026-04-29 15:20 32.00787 132.16211 11172 ft 309 kts 58°
2026-04-29 15:21 32.01891 132.18408 11538 ft 311 kts 58°
2026-04-29 15:21 32.02989 132.20591 11908 ft 313 kts 58°
2026-04-29 15:21 32.04104 132.22816 12267 ft 314 kts 58°
2026-04-29 15:21 32.05220 132.25037 12556 ft 319 kts 58°
2026-04-29 15:22 32.06366 132.27320 12808 ft 325 kts 58°
2026-04-29 15:22 32.07523 132.29634 12880 ft 337 kts 58°
2026-04-29 15:22 32.08746 132.32072 12906 ft 348 kts 58°
2026-04-29 15:22 32.09982 132.34547 12956 ft 357 kts 58°
2026-04-29 15:23 32.11307 132.37002 13165 ft 357 kts 52°
2026-04-29 15:23 32.12778 132.39376 13426 ft 356 kts 51°
2026-04-29 15:23 32.14279 132.41687 13670 ft 356 kts 48°
2026-04-29 15:23 32.15931 132.43879 13925 ft 355 kts 44°
2026-04-29 15:24 32.17594 132.46003 14166 ft 355 kts 44°
2026-04-29 15:24 32.19291 132.48137 14435 ft 355 kts 44°
2026-04-29 15:24 32.20997 132.50281 14543 ft 361 kts 44°
2026-04-29 15:24 32.22723 132.52449 14548 ft 368 kts 44°
2026-04-29 15:25 32.24498 132.54681 14570 ft 373 kts 44°
2026-04-29 15:25 32.26265 132.56909 14730 ft 373 kts 44°
2026-04-29 15:25 32.28038 132.59144 15098 ft 365 kts 44°
2026-04-29 15:25 32.29722 132.61272 15776 ft 350 kts 43°
2026-04-29 15:26 32.31378 132.63360 16244 ft 344 kts 43°
2026-04-29 15:26 32.32998 132.65402 16524 ft 344 kts 43°
2026-04-29 15:26 32.34632 132.67463 16928 ft 336 kts 43°
2026-04-29 15:26 32.36194 132.69445 17634 ft 320 kts 43°
2026-04-29 15:27 32.37682 132.71326 18148 ft 312 kts 42°
2026-04-29 15:27 32.39162 132.73194 18531 ft 308 kts 42°
2026-04-29 15:27 32.40610 132.75030 18801 ft 308 kts 42°
2026-04-29 15:27 32.42082 132.76893 19072 ft 308 kts 42°
2026-04-29 15:28 32.43537 132.78735 19336 ft 308 kts 42°
2026-04-29 15:28 32.44511 132.79970 19496 ft 309 kts 42°
2026-04-29 15:28 32.46461 132.82448 19829 ft 309 kts 42°
2026-04-29 15:28 32.47931 132.84315 20085 ft 309 kts 42°
2026-04-29 15:29 32.49420 132.86204 20153 ft 317 kts 42°
2026-04-29 15:29 32.52449 132.90058 20571 ft 320 kts 42°
2026-04-29 15:30 32.55476 132.93910 20992 ft 321 kts 42°
2026-04-29 15:30 32.57011 132.95861 21171 ft 324 kts 42°
2026-04-29 15:30 32.58557 132.97831 21171 ft 332 kts 42°
2026-04-29 15:30 32.60155 132.99869 21197 ft 340 kts 42°
2026-04-29 15:31 32.61768 133.01927 21238 ft 345 kts 42°
2026-04-29 15:31 32.63399 133.04013 21405 ft 346 kts 42°
2026-04-29 15:31 32.65044 133.06112 21588 ft 346 kts 42°
2026-04-29 15:31 32.66669 133.08188 21767 ft 346 kts 42°
2026-04-29 15:32 32.68317 133.10296 21916 ft 347 kts 42°
2026-04-29 15:32 32.69970 133.12410 22086 ft 346 kts 42°
2026-04-29 15:32 32.71602 133.14497 22132 ft 351 kts 42°
2026-04-29 15:32 32.73265 133.16626 22141 ft 356 kts 42°
2026-04-29 15:33 32.74971 133.18814 22160 ft 363 kts 42°
2026-04-29 15:33 32.76725 133.21059 22193 ft 374 kts 43°
2026-04-29 15:33 32.78500 133.23341 22234 ft 384 kts 43°
2026-04-29 15:33 32.80338 133.25704 22361 ft 389 kts 43°
2026-04-29 15:34 32.82165 133.28053 22635 ft 389 kts 43°
2026-04-29 15:34 32.84012 133.30424 22886 ft 390 kts 43°
2026-04-29 15:34 32.85847 133.32791 23395 ft 382 kts 43°
2026-04-29 15:34 32.87624 133.35077 23740 ft 381 kts 42°
2026-04-29 15:35 32.89447 133.37417 23779 ft 388 kts 42°
2026-04-29 15:35 32.91284 133.39784 23779 ft 396 kts 43°
2026-04-29 15:35 32.93181 133.42235 23787 ft 403 kts 43°
2026-04-29 15:35 32.95079 133.44684 23810 ft 408 kts 43°
2026-04-29 15:36 32.97023 133.47196 23830 ft 413 kts 43°
2026-04-29 15:36 32.98966 133.49708 23847 ft 418 kts 43°
2026-04-29 15:36 33.00954 133.52281 23864 ft 422 kts 43°
2026-04-29 15:36 33.02958 133.54873 23882 ft 425 kts 43°
2026-04-29 15:37 33.04953 133.57459 23896 ft 428 kts 43°
2026-04-29 15:37 33.06966 133.60067 23905 ft 431 kts 43°
2026-04-29 15:37 33.09016 133.62728 23913 ft 433 kts 43°
2026-04-29 15:37 33.11041 133.65355 23918 ft 435 kts 43°
2026-04-29 15:38 33.13100 133.68031 24047 ft 433 kts 43°
2026-04-29 15:38 33.15115 133.70652 24293 ft 428 kts 43°
2026-04-29 15:38 33.17129 133.73271 24553 ft 423 kts 43°
2026-04-29 15:38 33.19081 133.75816 24918 ft 416 kts 43°
2026-04-29 15:39 33.21029 133.78351 25273 ft 409 kts 42°
2026-04-29 15:39 33.22922 133.80817 25619 ft 403 kts 42°
2026-04-29 15:39 33.24810 133.83283 25976 ft 397 kts 42°
2026-04-29 15:39 33.26650 133.85683 26323 ft 391 kts 42°
2026-04-29 15:40 33.28483 133.88077 26676 ft 385 kts 42°
2026-04-29 15:40 33.30261 133.90405 27023 ft 379 kts 41°
2026-04-29 15:40 33.32033 133.92720 27371 ft 373 kts 41°
2026-04-29 15:40 33.33775 133.95003 27714 ft 367 kts 41°
2026-04-29 15:41 33.34912 133.96493 27956 ft 362 kts 41°
2026-04-29 15:41 33.36603 133.98709 28295 ft 354 kts 41°
2026-04-29 15:41 33.38772 134.01550 28679 ft 349 kts 41°
2026-04-29 15:41 33.39884 134.03005 28819 ft 351 kts 41°
2026-04-29 15:42 33.41530 134.05166 28806 ft 357 kts 41°
2026-04-29 15:42 33.44907 134.09604 28818 ft 365 kts 41°
2026-04-29 15:43 33.48337 134.14119 28974 ft 366 kts 42°
2026-04-29 15:43 33.51777 134.18662 29047 ft 367 kts 41°
2026-04-29 15:44 33.55228 134.23209 29095 ft 372 kts 41°
2026-04-29 15:44 33.58739 134.27839 29129 ft 380 kts 41°
2026-04-29 15:45 33.62308 134.32563 29122 ft 388 kts 42°
2026-04-29 15:45 33.65977 134.37423 29128 ft 395 kts 42°
2026-04-29 15:46 33.69687 134.42339 29116 ft 401 kts 42°
2026-04-29 15:46 33.73434 134.47318 29114 ft 405 kts 42°
2026-04-29 15:47 33.77238 134.52383 29124 ft 408 kts 42°
2026-04-29 15:47 33.81056 134.57462 29111 ft 412 kts 43°
2026-04-29 15:48 33.84897 134.62567 29120 ft 413 kts 40°
2026-04-29 15:48 33.87038 134.64856 29122 ft 406 kts 28°
2026-04-29 15:48 33.89422 134.66607 29124 ft 397 kts 16°
2026-04-29 15:48 33.91936 134.67762 29134 ft 386 kts
2026-04-29 15:49 33.94545 134.68337 29136 ft 374 kts 353°
2026-04-29 15:49 33.97083 134.68315 29074 ft 363 kts 343°
2026-04-29 15:49 33.99663 134.67777 27031 ft 395 kts 334°
2026-04-29 15:49 33.99895 134.67698 26777 ft 397 kts 333°